This is the latest recevied weather packets stored in our database for station/object K6CQU-13. If no packets are shown the sender has not sent any weather packets the latest 10 day(s).
| Time | Temp. | Humidity | Pressure | Rain* | Wind** | Luminosity | Snow |
|---|---|---|---|---|---|---|---|
| 1777911017 | 18.33° C | 55% | 1014.5 hPa | 0 mm | - | 342 W/m² | - |
| 1777910716 | 18.33° C | 57% | 1014.4 hPa | 0 mm | - | 434 W/m² | - |
| 1777910416 | 18.33° C | 58% | 1014.3 hPa | 0 mm | - | 460 W/m² | - |
| 1777910116 | 17.78° C | 58% | 1014.3 hPa | 0 mm | - | 412 W/m² | - |
| 1777909816 | 17.78° C | 60% | 1014.3 hPa | 0 mm | - | 431 W/m² | - |
| 1777909516 | 17.22° C | 61% | 1014.2 hPa | 0 mm | - | 430 W/m² | - |
| 1777909216 | 17.22° C | 62% | 1014.2 hPa | 0 mm | - | 428 W/m² | - |
| 1777908916 | 16.67° C | 63% | 1014.4 hPa | 0 mm | - | 436 W/m² | - |
| 1777908616 | 16.67° C | 65% | 1014.3 hPa | 0 mm | - | 296 W/m² | - |
| 1777908316 | 16.11° C | 65% | 1014.4 hPa | 0 mm | - | 247 W/m² | - |
| 1777908018 | 16.67° C | 65% | 1014.5 hPa | 0 mm | - | 262 W/m² | - |
| 1777907718 | 16.11° C | 67% | 1014.5 hPa | 0 mm | - | 319 W/m² | - |
| 1777907418 | 16.11° C | 68% | 1014.5 hPa | 0 mm | - | 307 W/m² | - |
| 1777907118 | 15.56° C | 69% | 1014.6 hPa | 0 mm | - | 293 W/m² | - |
| 1777906818 | 15.56° C | 69% | 1014.6 hPa | 0 mm | - | 283 W/m² | - |
| 1777906518 | 15.56° C | 71% | 1014.8 hPa | 0 mm | - | 268 W/m² | - |
| 1777906218 | 15° C | 72% | 1014.7 hPa | 0 mm | - | 235 W/m² | - |
| 1777905918 | 15° C | 73% | 1014.7 hPa | 0 mm | - | 228 W/m² | - |
| 1777905618 | 14.44° C | 75% | 1014.6 hPa | 0 mm | - | 216 W/m² | - |
| 1777905319 | 13.89° C | 76% | 1014.6 hPa | 0 mm | - | 201 W/m² | - |
| 1777905018 | 13.89° C | 77% | 1014.6 hPa | 0 mm | - | 186 W/m² | - |
| 1777904718 | 13.33° C | 79% | 1014.7 hPa | 0 mm | - | 166 W/m² | - |
| 1777904418 | 13.33° C | 80% | 1014.7 hPa | 0 mm | - | 150 W/m² | - |
| 1777904118 | 12.78° C | 81% | 1014.7 hPa | 0 mm | - | 129 W/m² | - |
| 1777903818 | 12.22° C | 81% | 1014.6 hPa | 0 mm | - | 110 W/m² | - |
* Rain latest hour (hover to see other rain measurements)
** Current wind speed in m/s (hover to see current wind gust speed)